Dewpoint
57 57 57 57 57 57 57 57 57 57 57 57 58 58 58 59 58 46 20 36 43 69 66 51 50 53 55 47 50 55 52 50 50 52 54 56 56 57 59 56 56 57 57 60 64
57 57 57 57 57 57 57 57 57 57 57 57 56 58 58 59 42 21 46 60 66 69 44 46 48 47 44 40 49 52 52 52 55 55 53 55 56 56 56 55 56 58 60 62 64
56 56 56 57 57 57 57 57 57 57 56 56 57 57 59 57 30 16 61 65 70 66 39 39 40 42 33 36 51 54 53 55 56 58 56 54 57 57 55 53 53 55 61 63 63
56 56 56 56 56 56 56 57 56 56 56 56 57 58 59 48 20 33 65 70 72 42 30 28 30 33 32 41 54 52 56 57 57 58 56 55 57 56 54 55 53 56 61 62 61
55 55 56 56 56 56 56 56 56 56 56 56 57 58 53 26 16 39 69 67 48 33 26 27 29 34 32 45 52 51 54 54 56 57 56 58 56 56 55 55 55 59 60 60 60
56 56 56 56 56 56 56 55 55 55 55 55 58 58 40 11 28 49 52 37 30 30 27 27 30 31 41 47 48 54 52 54 55 55 55 55 55 55 55 56 55 57 58 59 59
56 55 55 55 55 55 55 55 55 55 55 56 58 54 32 14 33 48 44 29 28 27 27 26 30 35 45 45 55 53 48 53 54 54 55 56 54 53 56 56 54 55 57 58 59
55 55 55 55 55 55 55 54 56 57 55 57 59 49 19 25 43 40 31 27 27 27 25 26 32 40 47 51 49 45 50 45 52 54 55 55 51 55 59 56 52 54 55 57 59
55 55 55 55 54 54 54 55 57 57 58 58 54 45 23 46 36 36 25 22 26 26 27 27 33 41 48 38 35 44 39 42 46 54 53 54 50 54 57 55 52 53 55 56 58
56 55 56 55 54 54 54 55 60 59 55 53 49 42 34 29 37 38 30 22 22 26 24 26 33 33 36 34 31 34 34 38 44 51 53 51 51 52 55 55 54 53 54 55 56
55 55 55 55 54 53 52 51 45 47 46 36 31 32 32 36 39 36 32 26 22 27 25 26 27 28 27 33 35 35 35 37 43 50 51 52 51 50 53 54 54 55 54 53 55
55 54 54 54 54 53 50 38 33 38 30 36 39 37 35 36 32 36 34 27 25 22 25 24 25 26 26 27 30 31 33 36 47 51 53 52 52 52 52 54 54 54 55 55 55
55 55 54 54 53 50 44 35 38 40 31 27 29 30 31 35 29 32 32 30 25 22 22 22 23 26 25 27 29 31 31 35 42 48 52 52 48 48 51 53 53 54 54 55 56
55 55 54 53 49 47 41 42 40 41 27 29 27 28 32 32 30 30 30 27 24 22 23 23 23 25 25 25 23 30 32 38 41 43 40 48 37 43 46 50 53 53 54 53 55
54 55 54 53 49 42 42 43 41 37 22 30 31 35 32 30 29 30 28 24 20 21 23 21 20 23 25 24 25 30 39 38 39 38 39 43 40 40 46 43 48 52 53 54 53
54 54 53 51 50 45 45 43 37 27 22 29 31 29 30 27 23 28 26 25 25 21 17 17 19 23 25 25 28 39 38 37 38 36 35 36 36 31 36 43 47 49 52 54 53
53 52 52 49 40 46 45 36 25 18 29 29 28 27 24 24 20 25 25 24 20 19 17 16 18 19 21 23 34 36 29 24 25 27 27 35 34 34 38 43 48 49 52 55 55
52 51 52 49 49 48 41 30 24 20 28 22 23 25 24 23 24 21 23 21 21 17 15 17 18 22 23 25 25 34 25 21 21 18 18 34 30 33 42 45 49 50 52 54 55
51 51 50 50 50 48 33 24 22 24 23 18 22 25 26 24 22 23 23 22 22 20 18 14 17 16 19 25 27 28 30 22 16 17 18 24 28 41 46 44 47 49 51 54 55
51 47 44 48 48 39 28 29 23 27 23 19 22 26 26 24 23 22 24 24 23 22 21 19 19 16 16 19 22 22 23 20 17 20 22 25 28 30 43 45 46 47 50 53 55
49 41 46 47 43 31 25 26 24 21 21 21 21 22 23 24 25 24 25 25 22 21 23 18 18 20 19 20 20 21 20 19 15 19 19 21 25 30 40 45 45 46 48 51 54
47 38 46 44 33 31 25 27 33 24 30 25 28 26 23 19 24 25 25 26 21 20 21 23 20 22 21 21 20 20 21 18 18 27 20 23 23 28 39 45 47 46 49 49 53
47 45 47 42 33 32 35 30 32 31 34 33 28 26 26 22 25 25 26 28 28 26 27 24 22 22 23 20 24 22 24 19 17 16 22 21 21 38 41 46 48 48 51 55 54
49 41 43 45 44 38 36 34 33 38 37 38 37 36 32 28 29 28 25 30 34 32 51 37 24 26 23 25 28 28 25 22 18 20 22 23 24 31 33 40 45 50 52 54 57
46 45 47 41 41 41 40 39 36 35 39 40 38 38 37 33 29 28 29 30 34 46 36 32 30 30 29 27 27 25 24 25 23 25 24 25 28 31 32 33 41 47 52 53 56
44 44 43 43 45 43 41 39 39 38 40 37 39 39 38 37 39 36 38 35 32 36 36 36 32 35 32 27 27 27 26 24 25 25 26 26 29 32 35 43 46 52 52 53 55
48 49 47 41 39 37 38 41 41 42 41 41 42 41 39 39 42 42 40 40 39 40 37 37 33 34 32 30 30 29 29 28 27 29 29 27 33 36 35 43 43 45 50 53 53
Lifted_Index
13 13 14 14 14 14 14 14 14 15 15 14 14 14 14 13 12 10 9 10 9 6 5 4 2 2 2 3 2 0 -1 -1 -1 -1 -1 -2 -2 -2 -2 -2 -2 -2 -2 -2 -2
13 13 14 14 14 14 14 14 14 15 15 15 15 14 14 13 11 10 10 10 8 6 5 4 3 3 4 4 2 0 -1 -2 -2 -2 -1 -1 -2 -2 -2 -2 -2 -2 -2 -2 -2
13 13 13 14 14 14 14 14 14 14 15 15 15 14 13 12 10 10 10 8 7 6 6 5 4 4 5 4 2 -0 -1 -2 -2 -2 -1 -1 -2 -2 -2 -2 -1 -1 -2 -3 -2
12 13 13 13 13 14 14 13 13 13 14 14 14 13 12 11 10 9 8 6 6 7 8 6 5 5 5 3 1 -1 -1 -2 -2 -2 -1 -1 -2 -2 -2 -1 -1 -1 -2 -2 -2
12 12 12 13 13 13 13 13 13 12 13 13 13 13 11 10 9 8 6 5 7 8 8 7 6 5 4 2 0 -1 -1 -1 -1 -1 -1 -1 -2 -2 -2 -1 -1 -1 -2 -2 -2
13 12 12 12 13 13 13 13 12 12 12 12 12 12 11 9 8 7 6 7 8 8 8 7 6 5 3 1 -0 -1 -1 -1 -1 -1 -1 -1 -2 -2 -2 -1 -1 -1 -1 -1 -1
13 13 13 12 12 12 13 13 12 12 12 12 12 11 10 10 8 7 7 9 9 9 8 7 6 4 2 0 -0 -1 -1 -1 -2 -2 -2 -1 -2 -2 -2 -1 -1 -1 -1 -1 -1
13 13 13 13 12 12 12 12 12 12 12 11 11 10 10 10 8 7 8 9 9 9 8 7 6 3 1 -0 -0 -0 -0 -1 -2 -2 -2 -2 -2 -2 -2 -2 -1 -1 -1 -1 -2
13 13 13 13 13 12 12 12 12 12 11 11 9 9 9 9 8 7 8 9 9 9 8 7 5 2 1 0 1 0 -0 -1 -2 -3 -3 -2 -2 -2 -2 -2 -1 -1 -1 -2 -2
12 12 12 13 13 12 12 11 11 10 10 9 8 8 8 8 7 7 8 9 9 8 7 6 5 3 2 1 1 1 0 -1 -2 -3 -3 -3 -2 -2 -2 -2 -2 -1 -1 -1 -1
10 11 12 12 12 12 11 10 9 8 8 8 7 7 7 7 7 7 7 8 8 7 7 6 5 3 3 2 1 1 0 -1 -2 -3 -3 -3 -3 -3 -3 -3 -2 -2 -2 -1 -1
9 10 11 11 12 11 10 9 8 8 7 7 7 7 7 7 7 7 7 8 8 7 6 6 5 4 3 2 1 1 -0 -1 -2 -3 -3 -4 -4 -3 -3 -3 -2 -2 -2 -2 -1
9 9 10 11 11 10 10 9 9 8 7 7 7 7 7 6 6 7 7 7 7 7 6 6 5 4 3 2 1 0 -0 -1 -2 -3 -3 -4 -3 -3 -3 -3 -3 -3 -2 -2 -2
9 9 10 11 11 10 9 9 9 7 5 5 6 6 6 6 6 6 7 7 7 7 6 6 5 4 3 2 1 0 -0 -1 -1 -2 -3 -3 -3 -3 -3 -3 -3 -3 -2 -2 -2
9 9 10 10 10 9 9 9 8 6 3 4 5 6 5 5 6 6 7 7 7 7 6 6 5 4 3 2 1 -0 -1 -1 -1 -2 -2 -2 -2 -2 -2 -2 -3 -3 -3 -2 -2
10 9 9 10 10 9 9 8 7 4 3 3 4 5 5 5 6 6 6 7 7 6 6 6 5 4 3 2 1 -1 -1 -1 -1 -1 -1 -1 -2 -1 -2 -2 -2 -2 -2 -2 -2
9 9 9 9 9 9 8 7 5 3 3 3 4 4 4 5 5 5 6 6 6 5 5 5 4 4 3 2 0 -1 -1 -1 -1 -1 -1 -1 -1 -1 -1 -2 -2 -2 -2 -2 -2
8 8 8 9 9 8 7 5 4 4 4 4 3 3 4 4 4 5 5 5 5 5 4 3 3 3 2 1 0 -1 -1 -1 -1 -1 -1 -1 -1 -1 -1 -2 -2 -2 -2 -2 -2
7 7 7 8 8 8 6 5 5 5 4 4 3 3 3 3 4 4 4 4 4 4 4 3 2 2 2 1 1 0 -0 -0 -0 -1 -1 -1 -1 -1 -2 -2 -2 -2 -2 -2 -3
6 6 7 8 8 7 6 5 5 6 5 4 3 2 2 2 3 3 3 3 3 4 4 3 2 1 1 1 1 1 0 0 -0 -1 -1 -1 -0 -1 -2 -2 -2 -2 -2 -3 -3
5 5 6 7 7 7 6 6 6 6 6 5 4 3 2 2 2 2 2 2 2 3 3 3 2 1 1 1 0 0 0 0 -0 -0 -1 -1 -0 -1 -2 -3 -3 -3 -3 -3 -3
5 5 6 7 6 6 6 6 7 6 6 5 5 4 3 3 2 1 1 1 2 2 2 2 1 1 0 0 0 0 0 -0 -0 -0 -0 -0 -0 -1 -2 -3 -4 -3 -3 -3 -3
4 4 5 6 5 5 5 6 6 5 5 5 5 4 4 3 2 1 1 1 1 1 1 1 1 0 -0 0 0 0 -0 -0 -1 -1 -1 -0 -0 -1 -2 -3 -4 -4 -4 -4 -4
4 4 5 5 4 5 5 5 5 4 4 4 4 4 3 3 2 2 1 1 1 1 1 1 1 0 -0 -0 0 0 -0 -0 -1 -1 -1 -0 -1 -1 -1 -2 -3 -4 -4 -5 -5
5 5 5 5 4 4 4 4 4 4 4 3 3 3 3 3 2 2 2 1 1 1 0 0 0 0 -0 -0 -0 -0 -0 -0 -0 -0 -0 -0 -0 -1 -1 -2 -3 -4 -4 -5 -5
7 7 6 6 5 5 5 4 4 4 3 3 3 3 3 2 2 2 2 1 1 1 0 0 0 -0 -0 -0 -0 -0 -0 -0 -0 -0 -0 -0 -0 -0 -1 -2 -3 -3 -4 -4 -4
8 8 7 7 6 5 5 4 4 4 3 3 3 3 2 3 3 2 2 1 1 0 0 0 0 -0 -0 -0 -1 -1 -0 -0 -0 -0 -0 -0 -0 -1 -1 -2 -2 -3 -4 -4 -4